﻿測定場所 (Monitoring sites),日付 (Measurement date),時間 (Measurement time),線量率 最大値 (max) μGy/h,線量率 最小値 (min) μGy/h,線量率 平均値 (average) μGy/h,
足立 (Adachi),2014-09-28,23:01～24:00,0.0470,0.0418,0.0444,
足立 (Adachi),2014-09-28,22:01～23:00,0.0474,0.0411,0.0441,
足立 (Adachi),2014-09-28,21:01～22:00,0.0473,0.0416,0.0438,
足立 (Adachi),2014-09-28,20:01～21:00,0.0462,0.0404,0.0439,
足立 (Adachi),2014-09-28,19:01～20:00,0.0470,0.0413,0.0436,
足立 (Adachi),2014-09-28,18:01～19:00,0.0470,0.0409,0.0435,
足立 (Adachi),2014-09-28,17:01～18:00,0.0474,0.0402,0.0438,
足立 (Adachi),2014-09-28,16:01～17:00,0.0470,0.0402,0.0438,
足立 (Adachi),2014-09-28,15:01～16:00,0.0473,0.0414,0.0439,
足立 (Adachi),2014-09-28,14:01～15:00,0.0478,0.0403,0.0439,
足立 (Adachi),2014-09-28,13:01～14:00,0.0488,0.0405,0.0439,
足立 (Adachi),2014-09-28,12:01～13:00,0.0459,0.0411,0.0438,
足立 (Adachi),2014-09-28,11:01～12:00,0.0466,0.0409,0.0438,
足立 (Adachi),2014-09-28,10:01～11:00,0.0472,0.0409,0.0440,
足立 (Adachi),2014-09-28,09:01～10:00,0.0495,0.0424,0.0449,
足立 (Adachi),2014-09-28,08:01～09:00,0.0477,0.0414,0.0446,
足立 (Adachi),2014-09-28,07:01～08:00,0.0489,0.0411,0.0446,
足立 (Adachi),2014-09-28,06:01～07:00,0.0470,0.0410,0.0442,
足立 (Adachi),2014-09-28,05:01～06:00,0.0482,0.0414,0.0440,
足立 (Adachi),2014-09-28,04:01～05:00,0.0490,0.0416,0.0444,
足立 (Adachi),2014-09-28,03:01～04:00,0.0480,0.0417,0.0442,
足立 (Adachi),2014-09-28,02:01～03:00,0.0463,0.0414,0.0439,
足立 (Adachi),2014-09-28,01:01～02:00,0.0471,0.0411,0.0438,
足立 (Adachi),2014-09-28,00:01～01:00,0.0473,0.0407,0.0439,
足立 (Adachi),2014-09-27,23:01～24:00,0.0481,0.0416,0.0439,
足立 (Adachi),2014-09-27,22:01～23:00,0.0467,0.0410,0.0437,
足立 (Adachi),2014-09-27,21:01～22:00,0.0466,0.0398,0.0436,
足立 (Adachi),2014-09-27,20:01～21:00,0.0466,0.0393,0.0434,
足立 (Adachi),2014-09-27,19:01～20:00,0.0465,0.0409,0.0434,
足立 (Adachi),2014-09-27,18:01～19:00,0.0459,0.0400,0.0429,
足立 (Adachi),2014-09-27,17:01～18:00,0.0451,0.0406,0.0427,
足立 (Adachi),2014-09-27,16:01～17:00,0.0455,0.0402,0.0427,
足立 (Adachi),2014-09-27,15:01～16:00,0.0459,0.0397,0.0427,
足立 (Adachi),2014-09-27,14:01～15:00,0.0459,0.0399,0.0428,
足立 (Adachi),2014-09-27,13:01～14:00,0.0461,0.0402,0.0431,
足立 (Adachi),2014-09-27,12:01～13:00,0.0462,0.0400,0.0430,
足立 (Adachi),2014-09-27,11:01～12:00,0.0465,0.0393,0.0428,
足立 (Adachi),2014-09-27,10:01～11:00,0.0470,0.0399,0.0429,
足立 (Adachi),2014-09-27,09:01～10:00,0.0471,0.0402,0.0432,
足立 (Adachi),2014-09-27,08:01～09:00,0.0461,0.0399,0.0433,
足立 (Adachi),2014-09-27,07:01～08:00,0.0464,0.0386,0.0429,
足立 (Adachi),2014-09-27,06:01～07:00,0.0448,0.0395,0.0424,
足立 (Adachi),2014-09-27,05:01～06:00,0.0458,0.0401,0.0432,
足立 (Adachi),2014-09-27,04:01～05:00,0.0472,0.0410,0.0436,
足立 (Adachi),2014-09-27,03:01～04:00,0.0464,0.0392,0.0433,
足立 (Adachi),2014-09-27,02:01～03:00,0.0461,0.0408,0.0436,
足立 (Adachi),2014-09-27,01:01～02:00,0.0462,0.0404,0.0435,
足立 (Adachi),2014-09-27,00:01～01:00,0.0471,0.0399,0.0438,
足立 (Adachi),2014-09-26,23:01～24:00,0.0465,0.0406,0.0434,
足立 (Adachi),2014-09-26,22:01～23:00,0.0463,0.0409,0.0432,
足立 (Adachi),2014-09-26,21:01～22:00,0.0472,0.0398,0.0433,
足立 (Adachi),2014-09-26,20:01～21:00,0.0469,0.0404,0.0435,
足立 (Adachi),2014-09-26,19:01～20:00,0.0456,0.0395,0.0431,
足立 (Adachi),2014-09-26,18:01～19:00,0.0460,0.0397,0.0428,
足立 (Adachi),2014-09-26,17:01～18:00,0.0460,0.0400,0.0427,
足立 (Adachi),2014-09-26,16:01～17:00,0.0461,0.0396,0.0430,
足立 (Adachi),2014-09-26,15:01～16:00,0.0464,0.0402,0.0429,
足立 (Adachi),2014-09-26,14:01～15:00,0.0456,0.0397,0.0424,
足立 (Adachi),2014-09-26,13:01～14:00,0.0468,0.0398,0.0428,
足立 (Adachi),2014-09-26,12:01～13:00,0.0454,0.0391,0.0422,
足立 (Adachi),2014-09-26,11:01～12:00,0.0458,0.0386,0.0426,
足立 (Adachi),2014-09-26,10:01～11:00,0.0458,0.0397,0.0427,
足立 (Adachi),2014-09-26,09:01～10:00,0.0457,0.0398,0.0425,
足立 (Adachi),2014-09-26,08:01～09:00,0.0451,0.0391,0.0426,
足立 (Adachi),2014-09-26,07:01～08:00,0.0456,0.0394,0.0423,
足立 (Adachi),2014-09-26,06:01～07:00,0.0450,0.0383,0.0416,
足立 (Adachi),2014-09-26,05:01～06:00,0.0495,0.0384,0.0418,
足立 (Adachi),2014-09-26,04:01～05:00,0.0459,0.0375,0.0414,
足立 (Adachi),2014-09-26,03:01～04:00,0.0458,0.0391,0.0419,
足立 (Adachi),2014-09-26,02:01～03:00,0.0474,0.0397,0.0434,
足立 (Adachi),2014-09-26,01:01～02:00,0.0469,0.0411,0.0445,
足立 (Adachi),2014-09-26,00:01～01:00,0.0462,0.0386,0.0431,
足立 (Adachi),2014-09-25,23:01～24:00,0.0460,0.0396,0.0428,
足立 (Adachi),2014-09-25,22:01～23:00,0.0454,0.0407,0.0427,
足立 (Adachi),2014-09-25,21:01～22:00,0.0463,0.0388,0.0425,
足立 (Adachi),2014-09-25,20:01～21:00,0.0465,0.0399,0.0430,
足立 (Adachi),2014-09-25,19:01～20:00,0.0460,0.0409,0.0439,
足立 (Adachi),2014-09-25,18:01～19:00,0.0474,0.0412,0.0446,
足立 (Adachi),2014-09-25,17:01～18:00,0.0490,0.0402,0.0442,
足立 (Adachi),2014-09-25,16:01～17:00,0.0455,0.0393,0.0421,
足立 (Adachi),2014-09-25,15:01～16:00,0.0455,0.0388,0.0421,
足立 (Adachi),2014-09-25,14:01～15:00,0.0455,0.0395,0.0422,
足立 (Adachi),2014-09-25,13:01～14:00,0.0447,0.0381,0.0417,
足立 (Adachi),2014-09-25,12:01～13:00,0.0451,0.0391,0.0416,
足立 (Adachi),2014-09-25,11:01～12:00,0.0453,0.0392,0.0421,
足立 (Adachi),2014-09-25,10:01～11:00,0.0451,0.0392,0.0422,
足立 (Adachi),2014-09-25,09:01～10:00,0.0444,0.0379,0.0420,
足立 (Adachi),2014-09-25,08:01～09:00,0.0455,0.0392,0.0420,
足立 (Adachi),2014-09-25,07:01～08:00,0.0464,0.0393,0.0423,
足立 (Adachi),2014-09-25,06:01～07:00,0.0463,0.0394,0.0435,
足立 (Adachi),2014-09-25,05:01～06:00,0.0479,0.0421,0.0451,
足立 (Adachi),2014-09-25,04:01～05:00,0.0487,0.0424,0.0455,
足立 (Adachi),2014-09-25,03:01～04:00,0.0483,0.0416,0.0453,
足立 (Adachi),2014-09-25,02:01～03:00,0.0476,0.0397,0.0433,
足立 (Adachi),2014-09-25,01:01～02:00,0.0467,0.0386,0.0418,
足立 (Adachi),2014-09-25,00:01～01:00,0.0447,0.0387,0.0416,
足立 (Adachi),2014-09-24,23:01～24:00,0.0449,0.0381,0.0413,
足立 (Adachi),2014-09-24,22:01～23:00,0.0456,0.0393,0.0427,
足立 (Adachi),2014-09-24,21:01～22:00,0.0474,0.0408,0.0439,
足立 (Adachi),2014-09-24,20:01～21:00,0.0482,0.0412,0.0447,
足立 (Adachi),2014-09-24,19:01～20:00,0.0502,0.0431,0.0465,
足立 (Adachi),2014-09-24,18:01～19:00,0.0501,0.0417,0.0450,
足立 (Adachi),2014-09-24,17:01～18:00,0.0468,0.0411,0.0439,
足立 (Adachi),2014-09-24,16:01～17:00,0.0475,0.0406,0.0438,
足立 (Adachi),2014-09-24,15:01～16:00,0.0464,0.0390,0.0429,
足立 (Adachi),2014-09-24,14:01～15:00,0.0451,0.0400,0.0424,
足立 (Adachi),2014-09-24,13:01～14:00,0.0452,0.0400,0.0424,
足立 (Adachi),2014-09-24,12:01～13:00,0.0460,0.0395,0.0423,
足立 (Adachi),2014-09-24,11:01～12:00,0.0463,0.0396,0.0429,
足立 (Adachi),2014-09-24,10:01～11:00,0.0463,0.0407,0.0431,
足立 (Adachi),2014-09-24,09:01～10:00,0.0455,0.0393,0.0428,
足立 (Adachi),2014-09-24,08:01～09:00,0.0464,0.0398,0.0434,
足立 (Adachi),2014-09-24,07:01～08:00,0.0468,0.0403,0.0435,
足立 (Adachi),2014-09-24,06:01～07:00,0.0464,0.0407,0.0438,
足立 (Adachi),2014-09-24,05:01～06:00,0.0472,0.0409,0.0441,
足立 (Adachi),2014-09-24,04:01～05:00,0.0476,0.0408,0.0440,
足立 (Adachi),2014-09-24,03:01～04:00,0.0473,0.0411,0.0438,
足立 (Adachi),2014-09-24,02:01～03:00,0.0464,0.0395,0.0433,
足立 (Adachi),2014-09-24,01:01～02:00,0.0458,0.0407,0.0431,
足立 (Adachi),2014-09-24,00:01～01:00,0.0468,0.0393,0.0433,
足立 (Adachi),2014-09-23,23:01～24:00,0.0484,0.0402,0.0430,
足立 (Adachi),2014-09-23,22:01～23:00,0.0459,0.0407,0.0432,
足立 (Adachi),2014-09-23,21:01～22:00,0.0460,0.0397,0.0425,
足立 (Adachi),2014-09-23,20:01～21:00,0.0457,0.0393,0.0428,
足立 (Adachi),2014-09-23,19:01～20:00,0.0458,0.0406,0.0428,
足立 (Adachi),2014-09-23,18:01～19:00,0.0461,0.0391,0.0427,
足立 (Adachi),2014-09-23,17:01～18:00,0.0453,0.0388,0.0423,
足立 (Adachi),2014-09-23,16:01～17:00,0.0460,0.0393,0.0428,
足立 (Adachi),2014-09-23,15:01～16:00,0.0465,0.0398,0.0430,
足立 (Adachi),2014-09-23,14:01～15:00,0.0460,0.0393,0.0430,
足立 (Adachi),2014-09-23,13:01～14:00,0.0458,0.0395,0.0429,
足立 (Adachi),2014-09-23,12:01～13:00,0.0457,0.0399,0.0429,
足立 (Adachi),2014-09-23,11:01～12:00,0.0454,0.0398,0.0431,
足立 (Adachi),2014-09-23,10:01～11:00,0.0467,0.0395,0.0430,
足立 (Adachi),2014-09-23,09:01～10:00,0.0459,0.0412,0.0432,
足立 (Adachi),2014-09-23,08:01～09:00,0.0476,0.0406,0.0434,
足立 (Adachi),2014-09-23,07:01～08:00,0.0456,0.0405,0.0435,
足立 (Adachi),2014-09-23,06:01～07:00,0.0461,0.0406,0.0432,
足立 (Adachi),2014-09-23,05:01～06:00,0.0456,0.0398,0.0426,
足立 (Adachi),2014-09-23,04:01～05:00,0.0471,0.0383,0.0426,
足立 (Adachi),2014-09-23,03:01～04:00,0.0451,0.0398,0.0424,
足立 (Adachi),2014-09-23,02:01～03:00,0.0449,0.0388,0.0419,
足立 (Adachi),2014-09-23,01:01～02:00,0.0456,0.0390,0.0421,
足立 (Adachi),2014-09-23,00:01～01:00,0.0456,0.0394,0.0423,
足立 (Adachi),2014-09-22,23:01～24:00,0.0482,0.0418,0.0446,
足立 (Adachi),2014-09-22,22:01～23:00,0.0581,0.0444,0.0508,
足立 (Adachi),2014-09-22,21:01～22:00,0.0618,0.0508,0.0568,
足立 (Adachi),2014-09-22,20:01～21:00,0.0587,0.0431,0.0491,
足立 (Adachi),2014-09-22,19:01～20:00,0.0465,0.0403,0.0433,
足立 (Adachi),2014-09-22,18:01～19:00,0.0473,0.0404,0.0439,
足立 (Adachi),2014-09-22,17:01～18:00,0.0471,0.0408,0.0435,
足立 (Adachi),2014-09-22,16:01～17:00,0.0468,0.0405,0.0434,
足立 (Adachi),2014-09-22,15:01～16:00,0.0482,0.0404,0.0436,
足立 (Adachi),2014-09-22,14:01～15:00,0.0470,0.0397,0.0437,
足立 (Adachi),2014-09-22,13:01～14:00,0.0470,0.0402,0.0434,
足立 (Adachi),2014-09-22,12:01～13:00,0.0473,0.0409,0.0437,
足立 (Adachi),2014-09-22,11:01～12:00,0.0480,0.0408,0.0439,
足立 (Adachi),2014-09-22,10:01～11:00,0.0474,0.0406,0.0433,
足立 (Adachi),2014-09-22,09:01～10:00,0.0491,0.0406,0.0440,
足立 (Adachi),2014-09-22,08:01～09:00,0.0469,0.0416,0.0441,
足立 (Adachi),2014-09-22,07:01～08:00,0.0474,0.0408,0.0441,
足立 (Adachi),2014-09-22,06:01～07:00,0.0472,0.0407,0.0439,
足立 (Adachi),2014-09-22,05:01～06:00,0.0481,0.0407,0.0442,
足立 (Adachi),2014-09-22,04:01～05:00,0.0484,0.0403,0.0443,
足立 (Adachi),2014-09-22,03:01～04:00,0.0475,0.0415,0.0441,
足立 (Adachi),2014-09-22,02:01～03:00,0.0487,0.0407,0.0440,
足立 (Adachi),2014-09-22,01:01～02:00,0.0462,0.0411,0.0437,
足立 (Adachi),2014-09-22,00:01～01:00,0.0469,0.0399,0.0435,
